This is the latest recevied weather packets stored in our database for station/object KM7BEO. If no packets are shown the sender has not sent any weather packets the latest 10 day(s).
| Time | Temp. | Humidity | Pressure | Rain* | Wind** | Luminosity | Snow |
|---|---|---|---|---|---|---|---|
| 1778193469 | 15.56° C | 64% | 1017.7 hPa | 0 mm | - | 390 W/m² | - |
| 1778193166 | 15.56° C | 66% | 1017.9 hPa | 0 mm | - | 114 W/m² | - |
| 1778192863 | 16.11° C | 67% | 1018 hPa | 0 mm | - | 480 W/m² | - |
| 1778192559 | 16.11° C | 65% | 1017.9 hPa | 0 mm | - | 94 W/m² | - |
| 1778192256 | 16.11° C | 64% | 1018 hPa | 0 mm | - | 101 W/m² | - |
| 1778191952 | 16.11° C | 64% | 1018.1 hPa | 0 mm | - | 75 W/m² | - |
| 1778191649 | 16.11° C | 64% | 1017.9 hPa | 0 mm | - | 95 W/m² | - |
| 1778191348 | 16.11° C | 64% | 1018.1 hPa | 0 mm | - | 91 W/m² | - |
| 1778191043 | 16.11° C | 65% | 1018.2 hPa | 0 mm | - | 145 W/m² | - |
| 1778190741 | 16.11° C | 64% | 1018.4 hPa | 0 mm | - | 154 W/m² | - |
| 1778190438 | 16.11° C | 65% | 1018.5 hPa | 0 mm | - | 142 W/m² | - |
| 1778190135 | 15.56° C | 65% | 1018.5 hPa | 0 mm | - | 130 W/m² | - |
| 1778189830 | 15.56° C | 66% | 1018.5 hPa | 0 mm | - | 137 W/m² | - |
| 1778189528 | 15° C | 68% | 1018.5 hPa | 0 mm | - | 146 W/m² | - |
| 1778189224 | 15° C | 67% | 1018.7 hPa | 0 mm | - | 211 W/m² | - |
| 1778188921 | 15° C | 66% | 1018.7 hPa | 0 mm | - | 233 W/m² | - |
| 1778188617 | 15.56° C | 65% | 1018.7 hPa | 0 mm | - | 236 W/m² | - |
| 1778188313 | 15° C | 70% | 1018.8 hPa | 0 mm | - | 273 W/m² | - |
| 1778188011 | 13.89° C | 70% | 1019 hPa | 0 mm | - | 306 W/m² | - |
| 1778187707 | 13.89° C | 69% | 1019 hPa | 0 mm | - | 274 W/m² | - |
| 1778187403 | 14.44° C | 67% | 1018.8 hPa | 0 mm | - | 308 W/m² | - |
| 1778187100 | 15° C | 67% | 1019 hPa | 0 mm | - | 576 W/m² | - |
| 1778186797 | 15° C | 67% | 1019 hPa | 0 mm | - | 367 W/m² | - |
| 1778186495 | 15° C | 66% | 1019.1 hPa | 0 mm | - | 862 W/m² | - |
| 1778186192 | 15° C | 66% | 1019.1 hPa | 0 mm | - | 854 W/m² | - |
* Rain latest hour (hover to see other rain measurements)
** Current wind speed in m/s (hover to see current wind gust speed)